STARLINK-2299, 48029

Orbit data source: Space-Track

STARLINK-2299, 48029 is a payload satellite owned by SpaceX/Seattle (US) in LEO that was launched on Wed, 24 Mar 2021 UTC via an FALCON 9 launch vehicle from the Air Force Eastern Test Range (AFETR). Payload-class satellites include a variety of spacecraft equipped with specific instruments for various scientific and technological missions. These include communications satellites like Starlink; space stations such as the ISS; scientific satellites like the Hubble; Earth observation satellites from companies like Planet Labs, Umbra, and HawkEye 360; GPS; miniature CubeSats for education and research; and military/defense satellites.

Loading next visibility...
Identifier
48029, 2021-024BE
Orbit
LEO
Country
Flag of USUS
Related business
Manufacturer
SpaceX/Seattle
Mission
Operational Commercial Communications
Bus & Motor
STARLINK, Unknown motor
Mass
260 kg wet, ~248 kg dry
Launch date (UTC)
2021-03-24 (5 years ago)
Launch vehicle
FALCON 9
Launch site
Air Force Eastern Test Range (AFETR)
Object type
Payload
Rocket body
Debris
Shape & HBR
Box + 1 Pan, 10.1 m
Radar Cross Section
13.562 m², Large (>1 m²)

Expand to show TLE details & history
Last TLE update: 16 hours ago

TLE from 16 hours ago
0 STARLINK-2299
1 48029U 21024BE  25346.78634754 -.00000257  00000-0  16124-5 0  9990
2 48029  53.0565   1.7417 0001496  88.9886 271.1274 15.06402812261536
Epoch: 2025-12-12T18:52Z
TLE epoch observation values (Epoch: 2025-12-12T18:52:20.427Z)
Latitude
-0.00005°
Longitude
-3.06643°
Altitude
548.062 km
Speed
7.589 km/s
True Right ascension
00h 06m 57s
True Declination
0° 00' 00"
Sunlit
Object was in daylight at epoch
Visualization orbit readout
Latitude
Unknown
Longitude
Unknown
Altitude
Unknown
Speed
Unknown
Apparent Right ascension
Unknown
Apparent Declination
Unknown
Sunlit
N/A
Visualization observer readout
Local Sidereal Time
09:19:33
Azimuth
Unknown
Elevation
Unknown
Doppler factor
Unknown
Orbital elements
Apogee altitude
548.509 km
Perigee altitude
546.437 km
Semi-major axis
6,925.61 km
Eccentricity
0.00015
Inclination
53.0565°
RAAN
1.7417°
Arg. of periapsis
88.9886°
True anomaly
271.11026°
Mean anomaly
271.1274°
Eccentric anomaly
271.11883°
Mean motion
3.76579 °/min
Orbital period
95.6 mins
BSTAR
0.0000016124
Loading maneuver chart data...
Computing Atmospheric mass density...

Documentation

Showing up to 5 results
|